Time,TemperatureF,DewpointF,PressureIn,WindDirection,WindDirectionDegrees,WindSpeedMPH,WindSpeedGustMPH,Humidity,HourlyPrecipIn,Conditions,Clouds,dailyrainin,SolarRadiationWatts/m^2,SoftwareType,DateUTC
2013-08-04 00:03:00,69.0,66.0,29.82,SW,230,2.0,8.0,89,0.00,,,0.03,0.000000,,2013-08-04 04:03:00,
2013-08-04 00:12:00,69.0,66.0,29.82,SW,230,2.0,8.0,89,0.00,,,0.03,0.000000,,2013-08-04 04:12:00,
2013-08-04 00:42:00,70.0,67.0,29.81,WNW,286,1.0,10.0,90,0.00,,,0.02,0.000000,,2013-08-04 04:42:00,
2013-08-04 00:52:00,70.0,67.0,29.81,WNW,286,1.0,10.0,90,0.00,,,0.02,0.000000,,2013-08-04 04:52:00,
2013-08-04 01:02:00,69.0,66.0,29.80,NW,325,1.0,5.0,91,0.00,,,0.02,0.000000,,2013-08-04 05:02:00,
2013-08-04 01:12:00,69.0,66.0,29.80,NW,325,1.0,5.0,91,0.00,,,0.02,0.000000,,2013-08-04 05:12:00,
2013-08-04 01:22:00,69.0,66.0,29.80,WNW,287,2.0,8.0,91,0.00,,,0.02,0.000000,,2013-08-04 05:22:00,
2013-08-04 01:32:00,69.0,66.0,29.80,WNW,287,2.0,8.0,91,0.00,,,0.02,0.000000,,2013-08-04 05:32:00,
2013-08-04 01:42:00,69.0,66.0,29.80,WNW,287,2.0,8.0,91,0.00,,,0.02,0.000000,,2013-08-04 05:42:00,
2013-08-04 01:52:00,69.0,66.0,29.80,WNW,287,2.0,8.0,91,0.00,,,0.02,0.000000,,2013-08-04 05:52:00,
2013-08-04 02:02:00,69.0,66.0,29.80,WNW,287,2.0,8.0,91,0.00,,,0.02,0.000000,,2013-08-04 06:02:00,
2013-08-04 02:12:00,67.0,63.0,29.78,NW,316,0.0,7.0,88,0.00,,,0.02,0.000000,,2013-08-04 06:12:00,
2013-08-04 02:22:00,67.0,63.0,29.78,NW,316,0.0,7.0,88,0.00,,,0.02,0.000000,,2013-08-04 06:22:00,
2013-08-04 02:32:00,66.0,62.0,29.78,NW,315,1.0,9.0,86,0.00,,,0.02,0.000000,,2013-08-04 06:32:00,
2013-08-04 02:43:00,66.0,62.0,29.78,NW,315,1.0,9.0,86,0.00,,,0.02,0.000000,,2013-08-04 06:43:00,
2013-08-04 02:52:00,66.0,62.0,29.78,NW,315,1.0,9.0,86,0.00,,,0.02,0.000000,,2013-08-04 06:52:00,
2013-08-04 03:02:00,66.0,62.0,29.78,NW,315,1.0,9.0,86,0.00,,,0.02,0.000000,,2013-08-04 07:02:00,
2013-08-04 03:12:00,65.0,61.0,29.79,NNW,337,1.0,7.0,86,0.00,,,0.02,0.000000,,2013-08-04 07:12:00,
2013-08-04 03:22:00,65.0,61.0,29.79,NNW,337,1.0,7.0,86,0.00,,,0.02,0.000000,,2013-08-04 07:22:00,
2013-08-04 03:32:00,65.0,61.0,29.79,NNW,337,1.0,7.0,86,0.00,,,0.02,0.000000,,2013-08-04 07:32:00,
2013-08-04 03:42:00,65.0,60.0,29.78,NNW,334,2.0,8.0,85,0.00,,,0.02,0.000000,,2013-08-04 07:42:00,
2013-08-04 03:53:00,65.0,60.0,29.78,NNW,334,2.0,8.0,85,0.00,,,0.02,0.000000,,2013-08-04 07:53:00,
2013-08-04 04:02:00,64.0,59.0,29.79,NW,313,0.0,5.0,84,0.00,,,0.02,0.000000,,2013-08-04 08:02:00,
2013-08-04 04:12:00,64.0,59.0,29.79,NW,308,0.0,5.0,85,0.00,,,0.02,0.000000,,2013-08-04 08:12:00,
2013-08-04 04:21:00,64.0,58.0,29.79,NW,325,2.0,6.0,81,0.00,,,0.02,0.000000,,2013-08-04 08:21:00,
2013-08-04 04:23:00,64.0,59.0,29.79,NW,308,0.0,5.0,85,0.00,,,0.02,0.000000,,2013-08-04 08:23:00,
2013-08-04 04:33:00,64.0,59.0,29.79,NW,308,0.0,5.0,85,0.00,,,0.02,0.000000,,2013-08-04 08:33:00,
2013-08-04 04:43:00,64.0,58.0,29.79,NW,325,2.0,6.0,81,0.00,,,0.02,0.000000,,2013-08-04 08:43:00,
2013-08-04 04:53:00,64.0,58.0,29.79,NW,325,2.0,6.0,81,0.00,,,0.02,0.000000,,2013-08-04 08:53:00,
2013-08-04 05:02:00,64.0,58.0,29.79,NW,325,2.0,6.0,81,0.00,,,0.02,0.000000,,2013-08-04 09:02:00,
2013-08-04 05:12:00,64.0,58.0,29.79,NW,325,2.0,6.0,81,0.00,,,0.02,0.000000,,2013-08-04 09:12:00,
2013-08-04 05:43:00,63.0,58.0,29.79,NNW,336,1.0,5.0,84,0.00,,,0.02,0.000000,,2013-08-04 09:43:00,
2013-08-04 05:52:00,62.0,58.0,29.79,NNW,330,1.0,5.0,86,0.00,,,0.02,0.000000,,2013-08-04 09:52:00,
2013-08-04 06:02:00,61.0,57.0,29.79,NW,316,0.0,6.0,87,0.00,,,0.02,0.000000,,2013-08-04 10:02:00,
2013-08-04 06:12:00,61.0,57.0,29.79,NNW,341,1.0,5.0,87,0.00,,,0.02,0.000000,,2013-08-04 10:12:00,
2013-08-04 06:22:00,61.0,57.0,29.79,NNW,333,0.0,6.0,87,0.00,,,0.02,7.000000,,2013-08-04 10:22:00,
2013-08-04 06:32:00,61.0,57.0,29.79,NNW,333,1.0,4.0,88,0.00,,,0.02,16.000000,,2013-08-04 10:32:00,
2013-08-04 06:42:00,61.0,58.0,29.79,NNW,336,0.0,1.0,89,0.00,,,0.02,14.000000,,2013-08-04 10:42:00,
2013-08-04 06:53:00,61.0,58.0,29.80,NNW,336,0.0,1.0,89,0.00,,,0.02,30.000000,,2013-08-04 10:53:00,
2013-08-04 07:02:00,61.0,58.0,29.80,NNW,336,0.0,1.0,89,0.00,,,0.02,30.000000,,2013-08-04 11:02:00,
2013-08-04 07:12:00,61.0,58.0,29.80,NNW,330,1.0,5.0,89,0.00,,,0.02,53.000000,,2013-08-04 11:12:00,
2013-08-04 07:22:00,62.0,59.0,29.80,NNW,336,1.0,5.0,89,0.00,,,0.02,56.000000,,2013-08-04 11:22:00,
2013-08-04 07:32:00,63.0,60.0,29.80,NNW,336,0.0,4.0,90,0.00,,,0.02,65.000000,,2013-08-04 11:32:00,
2013-08-04 07:42:00,63.0,60.0,29.80,NNW,336,0.0,4.0,90,0.00,,,0.02,65.000000,,2013-08-04 11:42:00,
2013-08-04 07:53:00,64.0,60.0,29.80,NNW,342,1.0,6.0,88,0.00,,,0.02,67.000000,,2013-08-04 11:53:00,
2013-08-04 08:02:00,64.0,60.0,29.80,NNW,342,1.0,6.0,88,0.00,,,0.02,67.000000,,2013-08-04 12:02:00,
2013-08-04 08:13:00,66.0,62.0,29.80,North,357,0.0,6.0,86,0.00,,,0.02,84.000000,,2013-08-04 12:13:00,
2013-08-04 08:22:00,67.0,62.0,29.81,NNW,348,0.0,5.0,83,0.00,,,0.02,97.000000,,2013-08-04 12:22:00,
2013-08-04 08:33:00,68.0,62.0,29.80,North,354,1.0,7.0,82,0.00,,,0.02,49.000000,,2013-08-04 12:33:00,
2013-08-04 08:43:00,68.0,62.0,29.81,North,360,2.0,8.0,80,0.00,,,0.02,100.000000,,2013-08-04 12:43:00,
2013-08-04 08:53:00,68.0,62.0,29.81,North,355,2.0,7.0,80,0.00,,,0.02,72.000000,,2013-08-04 12:53:00,
2013-08-04 09:02:00,69.0,62.0,29.80,NNW,343,1.0,8.0,79,0.00,,,0.02,83.000000,,2013-08-04 13:02:00,
2013-08-04 09:12:00,69.0,62.0,29.80,NNW,343,1.0,8.0,79,0.00,,,0.02,83.000000,,2013-08-04 13:12:00,
2013-08-04 09:22:00,70.0,62.0,29.81,North,358,2.0,7.0,77,0.00,,,0.02,70.000000,,2013-08-04 13:22:00,
2013-08-04 09:32:00,70.0,62.0,29.81,North,358,2.0,7.0,77,0.00,,,0.02,70.000000,,2013-08-04 13:32:00,
2013-08-04 09:43:00,70.0,62.0,29.80,North,2,1.0,6.0,77,0.00,,,0.02,185.000000,,2013-08-04 13:43:00,
2013-08-04 09:52:00,70.0,62.0,29.80,North,354,0.0,5.0,76,0.00,,,0.02,381.000000,,2013-08-04 13:52:00,
2013-08-04 10:02:00,70.0,62.0,29.80,North,354,0.0,5.0,76,0.00,,,0.02,381.000000,,2013-08-04 14:02:00,
2013-08-04 10:12:00,70.0,62.0,29.80,North,354,0.0,5.0,76,0.00,,,0.02,381.000000,,2013-08-04 14:12:00,
2013-08-04 10:22:00,71.0,62.0,29.80,NNW,342,1.0,8.0,74,0.00,,,0.02,128.000000,,2013-08-04 14:22:00,
2013-08-04 10:32:00,72.0,62.0,29.80,North,353,3.0,8.0,70,0.00,,,0.02,132.000000,,2013-08-04 14:32:00,
2013-08-04 10:43:00,72.0,62.0,29.80,North,353,3.0,8.0,70,0.00,,,0.02,132.000000,,2013-08-04 14:43:00,
2013-08-04 10:53:00,73.0,63.0,29.80,North,356,1.0,7.0,70,0.00,,,0.02,172.000000,,2013-08-04 14:53:00,
2013-08-04 11:02:00,73.0,63.0,29.80,North,356,1.0,7.0,70,0.00,,,0.02,172.000000,,2013-08-04 15:02:00,
2013-08-04 11:12:00,73.0,61.0,29.80,NNE,14,1.0,8.0,66,0.00,,,0.02,239.000000,,2013-08-04 15:12:00,
2013-08-04 11:22:00,73.0,60.0,29.80,North,355,0.0,8.0,64,0.00,,,0.02,158.000000,,2013-08-04 15:22:00,
2013-08-04 11:32:00,73.0,61.0,29.80,NNE,19,1.0,8.0,65,0.00,,,0.02,135.000000,,2013-08-04 15:32:00,
2013-08-04 11:43:00,72.0,60.0,29.80,NNW,339,1.0,9.0,66,0.00,,,0.02,135.000000,,2013-08-04 15:43:00,
2013-08-04 11:53:00,72.0,60.0,29.80,NNW,339,1.0,9.0,66,0.00,,,0.02,135.000000,,2013-08-04 15:53:00,
2013-08-04 12:02:00,73.0,62.0,29.80,NNW,340,1.0,8.0,69,0.00,,,0.02,185.000000,,2013-08-04 16:02:00,
2013-08-04 12:12:00,74.0,62.0,29.80,NNW,341,1.0,7.0,67,0.00,,,0.02,462.000000,,2013-08-04 16:12:00,
2013-08-04 12:22:00,74.0,62.0,29.80,NNW,341,1.0,7.0,67,0.00,,,0.02,462.000000,,2013-08-04 16:22:00,
2013-08-04 12:33:00,74.0,63.0,29.80,North,350,2.0,7.0,68,0.00,,,0.02,214.000000,,2013-08-04 16:33:00,
2013-08-04 12:42:00,74.0,63.0,29.80,North,350,2.0,7.0,68,0.00,,,0.02,214.000000,,2013-08-04 16:42:00,
2013-08-04 12:53:00,74.0,63.0,29.79,North,349,2.0,10.0,68,0.00,,,0.02,977.000000,,2013-08-04 16:53:00,
2013-08-04 13:02:00,74.0,63.0,29.79,NNE,26,1.0,9.0,68,0.00,,,0.02,983.000000,,2013-08-04 17:02:00,
2013-08-04 13:12:00,74.0,61.0,29.79,North,7,2.0,7.0,63,0.00,,,0.02,983.000000,,2013-08-04 17:12:00,
2013-08-04 13:22:00,74.0,62.0,29.78,North,5,2.0,8.0,67,0.00,,,0.02,981.000000,,2013-08-04 17:22:00,
2013-08-04 13:32:00,75.0,63.0,29.79,NNW,348,3.0,7.0,67,0.00,,,0.02,979.000000,,2013-08-04 17:32:00,
2013-08-04 13:43:00,74.0,59.0,29.79,NNE,28,2.0,9.0,60,0.00,,,0.01,972.000000,,2013-08-04 17:43:00,
2013-08-04 13:53:00,75.0,62.0,29.78,NNW,345,0.0,5.0,64,0.00,,,0.01,1051.000000,,2013-08-04 17:53:00,
2013-08-04 14:02:00,74.0,61.0,29.78,NNW,338,0.0,5.0,65,0.00,,,0.01,193.000000,,2013-08-04 18:02:00,
2013-08-04 14:12:00,74.0,61.0,29.78,North,2,0.0,5.0,63,0.00,,,0.01,162.000000,,2013-08-04 18:12:00,
2013-08-04 14:22:00,74.0,61.0,29.78,NNW,343,2.0,6.0,63,0.00,,,0.00,983.000000,,2013-08-04 18:22:00,
2013-08-04 14:33:00,74.0,61.0,29.78,NNW,343,2.0,6.0,63,0.00,,,0.00,983.000000,,2013-08-04 18:33:00,
2013-08-04 14:43:00,74.0,59.0,29.78,NNE,29,1.0,6.0,60,0.00,,,0.00,647.000000,,2013-08-04 18:43:00,
2013-08-04 14:52:00,75.0,61.0,29.78,North,10,0.0,4.0,62,0.00,,,0.00,979.000000,,2013-08-04 18:52:00,
2013-08-04 15:02:00,75.0,61.0,29.78,North,10,0.0,4.0,62,0.00,,,0.00,979.000000,,2013-08-04 19:02:00,
2013-08-04 15:12:00,75.0,61.0,29.78,North,10,0.0,4.0,62,0.00,,,0.00,979.000000,,2013-08-04 19:12:00,
2013-08-04 15:22:00,76.0,62.0,29.77,SSW,193,1.0,7.0,62,0.00,,,0.00,459.000000,,2013-08-04 19:22:00,
2013-08-04 15:32:00,76.0,62.0,29.77,SSW,193,1.0,7.0,62,0.00,,,0.00,459.000000,,2013-08-04 19:32:00,
2013-08-04 15:44:00,76.0,63.0,29.77,SSW,207,6.0,9.0,65,0.00,,,0.00,279.000000,,2013-08-04 19:44:00,
2013-08-04 15:53:00,76.0,63.0,29.77,SSW,207,6.0,9.0,65,0.00,,,0.00,279.000000,,2013-08-04 19:53:00,
2013-08-04 16:01:00,75.0,64.0,29.76,SSW,197,6.0,9.0,68,0.00,,,0.00,54.000000,,2013-08-04 20:01:00,
2013-08-04 16:02:00,76.0,64.0,29.77,South,187,5.0,9.0,67,0.00,,,0.00,267.000000,,2013-08-04 20:02:00,
2013-08-04 16:12:00,76.0,64.0,29.76,South,189,5.0,12.0,66,0.00,,,0.00,192.000000,,2013-08-04 20:12:00,
2013-08-04 16:22:00,75.0,64.0,29.76,SSW,197,6.0,9.0,68,0.00,,,0.00,54.000000,,2013-08-04 20:22:00,
2013-08-04 16:32:00,75.0,64.0,29.76,SSW,197,6.0,9.0,68,0.00,,,0.00,54.000000,,2013-08-04 20:32:00,
2013-08-04 16:42:00,75.0,64.0,29.76,SSW,197,6.0,9.0,68,0.00,,,0.00,54.000000,,2013-08-04 20:42:00,
2013-08-04 16:53:00,75.0,64.0,29.76,SSW,197,6.0,9.0,68,0.00,,,0.00,54.000000,,2013-08-04 20:53:00,
2013-08-04 17:12:00,76.0,65.0,29.76,South,184,4.0,8.0,69,0.00,,,0.00,40.000000,,2013-08-04 21:12:00,
2013-08-04 17:22:00,76.0,65.0,29.76,South,184,4.0,8.0,69,0.00,,,0.00,40.000000,,2013-08-04 21:22:00,
2013-08-04 17:32:00,76.0,65.0,29.76,South,184,4.0,8.0,69,0.00,,,0.00,40.000000,,2013-08-04 21:32:00,
2013-08-04 17:43:00,76.0,64.0,29.76,East,95,0.0,7.0,66,0.00,,,0.00,37.000000,,2013-08-04 21:43:00,
2013-08-04 17:53:00,75.0,65.0,29.76,SW,225,0.0,5.0,70,0.00,,,0.00,32.000000,,2013-08-04 21:53:00,
2013-08-04 18:02:00,75.0,65.0,29.76,SW,225,0.0,5.0,70,0.00,,,0.00,32.000000,,2013-08-04 22:02:00,
2013-08-04 18:12:00,76.0,63.0,29.76,SSW,211,0.0,7.0,65,0.00,,,0.00,58.000000,,2013-08-04 22:12:00,
2013-08-04 18:22:00,76.0,64.0,29.76,SW,228,2.0,6.0,67,0.00,,,0.00,51.000000,,2013-08-04 22:22:00,
2013-08-04 18:32:00,76.0,65.0,29.76,SW,232,2.0,8.0,70,0.00,,,0.00,25.000000,,2013-08-04 22:32:00,
2013-08-04 18:43:00,76.0,65.0,29.76,SW,232,2.0,8.0,70,0.00,,,0.00,25.000000,,2013-08-04 22:43:00,
2013-08-04 18:53:00,75.0,65.0,29.75,West,267,2.0,7.0,70,0.00,,,0.00,14.000000,,2013-08-04 22:53:00,
2013-08-04 19:02:00,74.0,64.0,29.75,SW,234,1.0,8.0,72,0.00,,,0.00,7.000000,,2013-08-04 23:02:00,
2013-08-04 19:12:00,73.0,64.0,29.75,SW,236,2.0,6.0,74,0.00,,,0.00,5.000000,,2013-08-04 23:12:00,
2013-08-04 19:23:00,73.0,65.0,29.76,WSW,241,0.0,7.0,76,0.00,,,0.00,5.000000,,2013-08-04 23:23:00,
2013-08-04 19:32:00,73.0,65.0,29.76,WSW,241,0.0,7.0,76,0.00,,,0.00,5.000000,,2013-08-04 23:32:00,
2013-08-04 19:43:00,72.0,65.0,29.76,WSW,249,1.0,5.0,80,0.00,,,0.00,32.000000,,2013-08-04 23:43:00,
2013-08-04 19:53:00,72.0,65.0,29.78,West,278,3.0,15.0,78,0.00,,,0.00,63.000000,,2013-08-04 23:53:00,
2013-08-04 20:02:00,72.0,65.0,29.78,West,278,3.0,15.0,78,0.00,,,0.00,63.000000,,2013-08-05 00:02:00,
2013-08-04 20:12:00,72.0,63.0,29.79,WNW,290,0.0,12.0,73,0.00,,,0.00,12.000000,,2013-08-05 00:12:00,
2013-08-04 20:22:00,71.0,62.0,29.79,NNW,340,2.0,9.0,74,0.00,,,0.00,0.000000,,2013-08-05 00:22:00,
2013-08-04 20:33:00,71.0,62.0,29.79,NNW,340,2.0,9.0,74,0.00,,,0.00,0.000000,,2013-08-05 00:33:00,
2013-08-04 20:42:00,71.0,62.0,29.79,NNW,340,2.0,9.0,74,0.00,,,0.00,0.000000,,2013-08-05 00:42:00,
2013-08-04 20:52:00,69.0,61.0,29.80,North,5,0.0,7.0,77,0.00,,,0.00,0.000000,,2013-08-05 00:52:00,
2013-08-04 21:02:00,69.0,63.0,29.82,North,3,4.0,8.0,81,0.00,,,0.00,0.000000,,2013-08-05 01:02:00,
2013-08-04 21:12:00,68.0,63.0,29.82,NNW,347,1.0,8.0,83,0.00,,,0.00,0.000000,,2013-08-05 01:12:00,
2013-08-04 21:22:00,68.0,63.0,29.82,NNW,347,1.0,8.0,83,0.00,,,0.00,0.000000,,2013-08-05 01:22:00,
2013-08-04 21:33:00,68.0,63.0,29.82,NNW,347,1.0,8.0,83,0.00,,,0.00,0.000000,,2013-08-05 01:33:00,
2013-08-04 21:43:00,67.0,62.0,29.83,NW,320,0.0,6.0,85,0.00,,,0.00,0.000000,,2013-08-05 01:43:00,
2013-08-04 21:52:00,67.0,62.0,29.83,North,349,0.0,3.0,83,0.00,,,0.00,0.000000,,2013-08-05 01:52:00,
2013-08-04 22:02:00,67.0,62.0,29.83,North,349,0.0,3.0,83,0.00,,,0.00,0.000000,,2013-08-05 02:02:00,
2013-08-04 22:12:00,67.0,62.0,29.83,North,349,0.0,3.0,83,0.00,,,0.00,0.000000,,2013-08-05 02:12:00,
2013-08-04 22:22:00,65.0,61.0,29.83,NNW,338,0.0,1.0,86,0.00,,,0.00,0.000000,,2013-08-05 02:22:00,
2013-08-04 22:33:00,65.0,61.0,29.83,NNW,338,0.0,0.0,87,0.00,,,0.00,0.000000,,2013-08-05 02:33:00,
2013-08-04 22:43:00,65.0,61.0,29.83,NNW,338,0.0,1.0,87,0.00,,,0.00,0.000000,,2013-08-05 02:43:00,
2013-08-04 22:53:00,65.0,61.0,29.83,NNW,338,0.0,1.0,87,0.00,,,0.00,0.000000,,2013-08-05 02:53:00,
2013-08-04 23:02:00,64.0,60.0,29.83,NNW,334,0.0,1.0,88,0.00,,,0.00,0.000000,,2013-08-05 03:02:00,
2013-08-04 23:12:00,64.0,61.0,29.84,NW,311,0.0,3.0,90,0.00,,,0.00,0.000000,,2013-08-05 03:12:00,
2013-08-04 23:22:00,64.0,61.0,29.83,NW,311,0.0,1.0,91,0.00,,,0.00,0.000000,,2013-08-05 03:22:00,
2013-08-04 23:32:00,64.0,61.0,29.83,NW,311,0.0,1.0,91,0.00,,,0.00,0.000000,,2013-08-05 03:32:00,
2013-08-04 23:42:00,64.0,61.0,29.83,NW,311,0.0,1.0,91,0.00,,,0.00,0.000000,,2013-08-05 03:42:00,
2013-08-04 23:53:00,64.0,61.0,29.84,WNW,297,0.0,1.0,91,0.00,,,0.00,0.000000,,2013-08-05 03:53:00,